Time,TemperatureF,DewpointF,PressureIn,WindDirection,WindDirectionDegrees,WindSpeedMPH,WindSpeedGustMPH,Humidity,HourlyPrecipIn,Conditions,Clouds,dailyrainin,SoftwareType,DateUTC
2013-10-11 00:06:00,60.8,54.0,30.06,NW,324,6.0,6.0,79,0.00,,,0.00,weatherlink.com 1.10,2013-10-11 04:06:00,
2013-10-11 00:21:00,60.6,54.0,30.06,NNW,347,1.0,5.0,79,0.00,,,0.00,weatherlink.com 1.10,2013-10-11 04:21:00,
2013-10-11 00:36:00,60.4,54.0,30.06,NW,322,2.0,5.0,80,0.00,,,0.00,weatherlink.com 1.10,2013-10-11 04:36:00,
2013-10-11 00:51:00,60.2,54.0,30.06,WNW,301,1.0,3.0,80,0.00,,,0.00,weatherlink.com 1.10,2013-10-11 04:51:00,
2013-10-11 01:06:00,60.2,54.0,30.05,NE,46,1.0,5.0,80,0.00,,,0.00,weatherlink.com 1.10,2013-10-11 05:06:00,
2013-10-11 01:21:00,60.2,54.0,30.05,North,355,2.0,5.0,80,0.00,,,0.00,weatherlink.com 1.10,2013-10-11 05:21:00,
2013-10-11 01:36:00,60.0,54.0,30.05,WNW,294,1.0,4.0,80,0.00,,,0.00,weatherlink.com 1.10,2013-10-11 05:36:00,
2013-10-11 01:52:00,59.9,54.0,30.05,NW,322,0.0,6.0,80,0.00,,,0.00,weatherlink.com 1.10,2013-10-11 05:52:00,
2013-10-11 02:07:00,60.0,54.0,30.05,NNW,333,1.0,4.0,80,0.00,,,0.00,weatherlink.com 1.10,2013-10-11 06:07:00,
2013-10-11 02:22:00,59.9,54.0,30.04,NW,310,4.0,5.0,80,0.00,,,0.00,weatherlink.com 1.10,2013-10-11 06:22:00,
2013-10-11 02:37:00,59.9,54.0,30.03,NNE,23,1.0,7.0,81,0.00,,,0.00,weatherlink.com 1.10,2013-10-11 06:37:00,
2013-10-11 02:52:00,59.8,54.0,30.03,NNW,330,2.0,6.0,81,0.00,,,0.00,weatherlink.com 1.10,2013-10-11 06:52:00,
2013-10-11 03:07:00,59.9,54.0,30.03,NW,325,4.0,5.0,81,0.00,,,0.00,weatherlink.com 1.10,2013-10-11 07:07:00,
2013-10-11 03:22:00,60.0,54.0,30.02,West,278,2.0,5.0,81,0.00,,,0.00,weatherlink.com 1.10,2013-10-11 07:22:00,
2013-10-11 03:37:00,59.9,54.0,30.02,ENE,58,1.0,6.0,81,0.00,,,0.00,weatherlink.com 1.10,2013-10-11 07:37:00,
2013-10-11 03:52:00,59.9,54.0,30.01,NW,308,2.0,5.0,82,0.00,,,0.00,weatherlink.com 1.10,2013-10-11 07:52:00,
2013-10-11 04:07:00,59.9,54.0,30.01,North,352,3.0,6.0,82,0.00,,,0.00,weatherlink.com 1.10,2013-10-11 08:07:00,
2013-10-11 04:22:00,59.9,54.0,30.02,WSW,238,0.0,5.0,82,0.00,,,0.00,weatherlink.com 1.10,2013-10-11 08:22:00,
2013-10-11 04:37:00,59.8,54.0,30.02,NNE,14,2.0,4.0,82,0.00,,,0.00,weatherlink.com 1.10,2013-10-11 08:37:00,
2013-10-11 04:52:00,59.8,54.0,30.02,WNW,294,0.0,3.0,82,0.00,,,0.00,weatherlink.com 1.10,2013-10-11 08:52:00,
2013-10-11 05:07:00,59.8,55.0,30.02,WNW,297,1.0,5.0,83,0.00,,,0.00,weatherlink.com 1.10,2013-10-11 09:07:00,
2013-10-11 05:22:00,59.8,54.0,30.02,NNW,337,2.0,6.0,82,0.00,,,0.00,weatherlink.com 1.10,2013-10-11 09:22:00,
2013-10-11 05:37:00,59.7,54.0,30.02,North,8,2.0,7.0,82,0.00,,,0.00,weatherlink.com 1.10,2013-10-11 09:37:00,
2013-10-11 05:52:00,59.7,55.0,30.02,NNW,342,1.0,7.0,83,0.00,,,0.00,weatherlink.com 1.10,2013-10-11 09:52:00,
2013-10-11 06:07:00,59.8,55.0,30.02,West,278,1.0,8.0,83,0.00,,,0.00,weatherlink.com 1.10,2013-10-11 10:07:00,
2013-10-11 06:22:00,59.7,54.0,30.02,NNW,348,2.0,7.0,82,0.00,,,0.00,weatherlink.com 1.10,2013-10-11 10:22:00,
2013-10-11 06:37:00,59.7,54.0,30.03,NW,309,1.0,6.0,82,0.00,,,0.00,weatherlink.com 1.10,2013-10-11 10:37:00,
2013-10-11 06:52:00,59.7,55.0,30.03,SSW,204,2.0,8.0,83,0.00,,,0.00,weatherlink.com 1.10,2013-10-11 10:52:00,
2013-10-11 07:07:00,59.7,55.0,30.03,North,359,5.0,6.0,83,0.00,,,0.00,weatherlink.com 1.10,2013-10-11 11:07:00,
2013-10-11 07:22:00,59.9,55.0,30.03,North,5,1.0,7.0,83,0.00,,,0.00,weatherlink.com 1.10,2013-10-11 11:22:00,
2013-10-11 07:37:00,60.0,55.0,30.03,NNW,335,2.0,5.0,83,0.00,,,0.00,weatherlink.com 1.10,2013-10-11 11:37:00,
2013-10-11 07:52:00,60.2,55.0,30.04,NW,311,2.0,6.0,83,0.00,,,0.00,weatherlink.com 1.10,2013-10-11 11:52:00,
2013-10-11 08:07:00,60.4,55.0,30.04,NW,316,2.0,5.0,83,0.00,,,0.00,weatherlink.com 1.10,2013-10-11 12:07:00,
2013-10-11 08:22:00,60.8,56.0,30.03,NE,37,1.0,6.0,83,0.00,,,0.00,weatherlink.com 1.10,2013-10-11 12:22:00,
2013-10-11 08:37:00,61.3,56.0,30.03,WNW,287,1.0,6.0,83,0.00,,,0.00,weatherlink.com 1.10,2013-10-11 12:37:00,
2013-10-11 08:52:00,62.2,57.0,30.03,NW,315,1.0,3.0,82,0.00,,,0.00,weatherlink.com 1.10,2013-10-11 12:52:00,
2013-10-11 09:07:00,62.6,57.0,30.03,NNE,32,1.0,8.0,81,0.00,,,0.00,weatherlink.com 1.10,2013-10-11 13:07:00,
2013-10-11 09:22:00,63.1,57.0,30.04,SSW,211,1.0,6.0,81,0.00,,,0.00,weatherlink.com 1.10,2013-10-11 13:22:00,
2013-10-11 09:37:00,63.0,57.0,30.04,North,8,1.0,9.0,80,0.00,,,0.00,weatherlink.com 1.10,2013-10-11 13:37:00,
2013-10-11 09:52:00,63.1,57.0,30.04,NNE,15,4.0,8.0,80,0.00,,,0.00,weatherlink.com 1.10,2013-10-11 13:52:00,
2013-10-11 10:08:00,63.6,57.0,30.05,NNW,345,1.0,4.0,80,0.00,,,0.00,weatherlink.com 1.10,2013-10-11 14:08:00,
2013-10-11 10:23:00,64.0,57.0,30.04,North,5,3.0,4.0,79,0.00,,,0.00,weatherlink.com 1.10,2013-10-11 14:23:00,
2013-10-11 10:38:00,63.8,57.0,30.04,NNW,331,2.0,6.0,79,0.00,,,0.00,weatherlink.com 1.10,2013-10-11 14:38:00,
2013-10-11 10:53:00,63.9,57.0,30.04,NNE,15,1.0,5.0,79,0.00,,,0.00,weatherlink.com 1.10,2013-10-11 14:53:00,
2013-10-11 11:08:00,64.0,57.0,30.04,West,273,0.0,7.0,79,0.00,,,0.00,weatherlink.com 1.10,2013-10-11 15:08:00,
2013-10-11 11:23:00,64.1,58.0,30.04,WSW,243,3.0,8.0,80,0.00,,,0.00,weatherlink.com 1.10,2013-10-11 15:23:00,
2013-10-11 11:38:00,64.0,58.0,30.04,North,4,5.0,7.0,81,0.00,,,0.00,weatherlink.com 1.10,2013-10-11 15:38:00,
2013-10-11 11:53:00,63.2,59.0,30.04,WSW,255,4.0,7.0,86,0.00,,,0.00,weatherlink.com 1.10,2013-10-11 15:53:00,
2013-10-11 12:08:00,62.7,59.0,30.04,East,82,1.0,4.0,88,0.00,,,0.00,weatherlink.com 1.10,2013-10-11 16:08:00,
2013-10-11 12:23:00,62.7,59.0,30.04,NNE,22,2.0,7.0,88,0.00,,,0.00,weatherlink.com 1.10,2013-10-11 16:23:00,
2013-10-11 12:38:00,62.4,60.0,30.04,NNW,333,1.0,5.0,91,0.00,,,0.00,weatherlink.com 1.10,2013-10-11 16:38:00,
2013-10-11 12:53:00,62.4,60.0,30.04,West,271,1.0,6.0,92,0.00,,,0.00,weatherlink.com 1.10,2013-10-11 16:53:00,
2013-10-11 13:08:00,62.8,61.0,30.03,West,278,0.0,6.0,92,0.00,,,0.00,weatherlink.com 1.10,2013-10-11 17:08:00,
2013-10-11 13:23:00,63.4,61.0,30.03,West,274,0.0,5.0,91,0.00,,,0.00,weatherlink.com 1.10,2013-10-11 17:23:00,
2013-10-11 13:38:00,64.1,61.0,30.02,NNW,339,2.0,6.0,88,0.00,,,0.00,weatherlink.com 1.10,2013-10-11 17:38:00,
2013-10-11 13:53:00,64.6,61.0,30.02,West,278,1.0,5.0,87,0.00,,,0.00,weatherlink.com 1.10,2013-10-11 17:53:00,
2013-10-11 14:08:00,64.7,61.0,30.02,NNW,331,2.0,6.0,86,0.00,,,0.00,weatherlink.com 1.10,2013-10-11 18:08:00,
2013-10-11 14:23:00,64.9,60.0,30.02,NW,309,3.0,6.0,85,0.00,,,0.00,weatherlink.com 1.10,2013-10-11 18:23:00,
2013-10-11 14:38:00,65.0,60.0,30.02,NNE,12,3.0,6.0,85,0.00,,,0.00,weatherlink.com 1.10,2013-10-11 18:38:00,
2013-10-11 14:53:00,65.4,61.0,30.01,ENE,64,2.0,8.0,84,0.00,,,0.00,weatherlink.com 1.10,2013-10-11 18:53:00,
2013-10-11 15:08:00,66.0,60.0,30.01,West,271,0.0,6.0,82,0.00,,,0.00,weatherlink.com 1.10,2013-10-11 19:08:00,
2013-10-11 15:23:00,66.5,60.0,30.01,WNW,288,4.0,7.0,80,0.00,,,0.00,weatherlink.com 1.10,2013-10-11 19:23:00,
2013-10-11 15:38:00,66.9,60.0,30.01,WNW,284,2.0,6.0,78,0.00,,,0.00,weatherlink.com 1.10,2013-10-11 19:38:00,
2013-10-11 15:53:00,67.2,59.0,30.01,West,276,2.0,9.0,76,0.00,,,0.00,weatherlink.com 1.10,2013-10-11 19:53:00,
2013-10-11 16:08:00,67.2,59.0,30.00,NW,321,1.0,6.0,76,0.00,,,0.00,weatherlink.com 1.10,2013-10-11 20:08:00,
2013-10-11 16:23:00,67.1,60.0,30.00,West,280,1.0,7.0,77,0.00,,,0.00,weatherlink.com 1.10,2013-10-11 20:23:00,
2013-10-11 16:38:00,67.5,59.0,30.01,SW,231,1.0,6.0,75,0.00,,,0.00,weatherlink.com 1.10,2013-10-11 20:38:00,
2013-10-11 16:53:00,68.0,59.0,30.01,SW,218,5.0,8.0,74,0.00,,,0.00,weatherlink.com 1.10,2013-10-11 20:53:00,
2013-10-11 17:08:00,68.2,60.0,30.02,NE,51,1.0,6.0,75,0.00,,,0.00,weatherlink.com 1.10,2013-10-11 21:08:00,
2013-10-11 17:23:00,68.0,60.0,30.02,West,264,0.0,3.0,76,0.00,,,0.00,weatherlink.com 1.10,2013-10-11 21:23:00,
2013-10-11 17:38:00,67.9,60.0,30.03,WSW,255,3.0,6.0,75,0.00,,,0.00,weatherlink.com 1.10,2013-10-11 21:38:00,
2013-10-11 17:53:00,67.9,60.0,30.04,West,267,4.0,6.0,75,0.00,,,0.00,weatherlink.com 1.10,2013-10-11 21:53:00,
2013-10-11 18:08:00,67.7,60.0,30.04,North,355,1.0,4.0,76,0.00,,,0.00,weatherlink.com 1.10,2013-10-11 22:08:00,
2013-10-11 18:23:00,67.4,60.0,30.04,WSW,238,1.0,4.0,78,0.00,,,0.00,weatherlink.com 1.10,2013-10-11 22:23:00,
2013-10-11 18:38:00,67.1,61.0,30.05,WNW,290,0.0,3.0,80,0.00,,,0.00,weatherlink.com 1.10,2013-10-11 22:38:00,
2013-10-11 18:53:00,66.9,61.0,30.04,NNW,342,2.0,4.0,80,0.00,,,0.00,weatherlink.com 1.10,2013-10-11 22:53:00,
2013-10-11 19:08:00,66.6,61.0,30.05,WNW,285,0.0,2.0,81,0.00,,,0.00,weatherlink.com 1.10,2013-10-11 23:08:00,
2013-10-11 19:53:00,66.3,61.0,30.05,West,267,0.0,1.0,82,0.00,,,0.00,weatherlink.com 1.10,2013-10-11 23:53:00,
2013-10-11 20:08:00,66.2,61.0,30.05,NNW,342,1.0,4.0,82,0.00,,,0.00,weatherlink.com 1.10,2013-10-12 00:08:00,
2013-10-11 20:23:00,66.2,61.0,30.05,West,280,0.0,2.0,83,0.00,,,0.00,weatherlink.com 1.10,2013-10-12 00:23:00,
2013-10-11 20:38:00,66.1,61.0,30.05,WNW,294,1.0,3.0,83,0.00,,,0.00,weatherlink.com 1.10,2013-10-12 00:38:00,
2013-10-11 20:53:00,66.2,61.0,30.05,NW,317,0.0,3.0,82,0.00,,,0.00,weatherlink.com 1.10,2013-10-12 00:53:00,
2013-10-11 21:08:00,66.2,61.0,30.06,NW,325,1.0,2.0,82,0.00,,,0.00,weatherlink.com 1.10,2013-10-12 01:08:00,
2013-10-11 21:23:00,66.3,60.0,30.07,WNW,290,1.0,2.0,81,0.00,,,0.00,weatherlink.com 1.10,2013-10-12 01:23:00,
2013-10-11 21:38:00,66.6,60.0,30.07,WSW,243,1.0,4.0,79,0.00,,,0.00,weatherlink.com 1.10,2013-10-12 01:38:00,
2013-10-11 21:53:00,66.9,59.0,30.08,West,262,1.0,3.0,77,0.00,,,0.00,weatherlink.com 1.10,2013-10-12 01:53:00,
2013-10-11 22:08:00,67.0,59.0,30.08,West,265,3.0,8.0,76,0.00,,,0.00,weatherlink.com 1.10,2013-10-12 02:08:00,
2013-10-11 22:23:00,67.0,59.0,30.08,West,276,2.0,4.0,76,0.00,,,0.00,weatherlink.com 1.10,2013-10-12 02:23:00,
2013-10-11 22:38:00,66.7,59.0,30.08,WNW,302,3.0,3.0,77,0.00,,,0.00,weatherlink.com 1.10,2013-10-12 02:38:00,
2013-10-11 22:53:00,66.6,60.0,30.08,NW,316,1.0,3.0,78,0.00,,,0.00,weatherlink.com 1.10,2013-10-12 02:53:00,
2013-10-11 23:08:00,66.1,59.0,30.07,NNE,23,1.0,3.0,79,0.00,,,0.00,weatherlink.com 1.10,2013-10-12 03:08:00,
2013-10-11 23:23:00,65.9,59.0,30.07,SW,226,1.0,5.0,79,0.00,,,0.00,weatherlink.com 1.10,2013-10-12 03:23:00,
2013-10-11 23:38:00,65.7,59.0,30.07,WNW,295,4.0,5.0,78,0.00,,,0.00,weatherlink.com 1.10,2013-10-12 03:38:00,
2013-10-11 23:53:00,65.5,58.0,30.06,West,276,2.0,5.0,76,0.00,,,0.00,weatherlink.com 1.10,2013-10-12 03:53:00,